Regional Weather Roundup
Issued by NWS

Home | Current Version | Previous Version | Text Only | Print | Product List | Glossary On
Versions: 1 2 3 4 5 6 7 8 9 10 11 12 13 14 15 16 17 18 19 20 21 22 23 24 25 26 27 28 29 30 31 32 33 34 35 36 37 38 39 40 41 42 43 44 45 46 47 48 49 50
000
ASUS46 KPQR 290710
RWROR

OREGON REGIONAL WEATHER ROUNDUP
NATIONAL WEATHER SERVICE PORTLAND OR
1200 AM PDT THU JUN 29 2017

NOTE: "FAIR" INDICATES FEW OR NO CLOUDS BELOW 12,000 FEET WITH
NO SIGNIFICANT WEATHER AND/OR OBSTRUCTIONS TO VISIBILITY.

ORZ001>013-290800-
NORTHWEST OREGON


CITY           SKY/WX    TMP DP  RH WIND       PRES   REMARKS
ASTORIA        CLOUDY    57  48  72 NW5       30.11S
NEWPORT        CLEAR     54  50  87 N3        30.13S
PORTLAND       CLEAR     58  50  75 NW7       30.09R
VANCOUVER WA   CLEAR     59  51  75 NW6       30.08S
SCAPPOOSE      CLEAR     56  49  77 N3        30.08S
HILLSBORO      CLEAR     54  32  43 NW8       30.08S
AURORA         CLEAR     59  48  67 N7        30.09R
MCMINNVILLE    CLEAR     57  49  74 NW5       30.09R
SALEM          CLEAR     57  49  74 NW3       30.07S
CORVALLIS      CLEAR     55  46  71 NW5       30.08R
EUGENE         CLEAR     54  52  93 CALM      30.07R
$$

ORZ021-028-290800-
SOUTHWEST OREGON


CITY           SKY/WX    TMP DP  RH WIND       PRES   REMARKS
NORTH BEND     CLEAR     55  52  88 N6        30.10S
BROOKINGS      CLOUDY    54  52  93 SE3       30.01S
ROSEBURG       CLEAR     63  53  70 N5        30.04S
SEXTON SUMMIT  CLEAR     53  45  74 N16       30.08S
GRANTS PASS    FAIR      64  48  55 N3        30.06R
MEDFORD        CLEAR     64  40  41 NE6       30.02R
$$

ORZ014>016-041-290800-
COLUMBIA GORGE


CITY           SKY/WX    TMP DP  RH WIND       PRES   REMARKS
TROUTDALE      CLEAR     59  50  72 VRB5      30.08R
HOOD RIVER     CLEAR     59  50  72 CALM      30.01S
THE DALLES     CLEAR     65  50  58 NW17      29.95S
$$

ORZ029>031-041-044-049-050-061>064-502-503-505>511-290800-
EASTERN OREGON


CITY           SKY/WX    TMP DP  RH WIND       PRES   REMARKS
MADRAS         CLEAR     52  37  58 N6        30.05S
REDMOND        CLEAR     55  38  52 N3        30.05R
BEND           CLEAR     55  36  47 CALM      30.07S
PRINEVILLE     CLEAR     52  36  54 W6        30.06S
KLAMATH FALLS  CLEAR     53  40  61 CALM      30.07R
LAKEVIEW       CLEAR     55  31  39 N10       30.08R
HERMISTON      CLEAR     64  46  52 SW16      29.91R
PENDLETON      CLEAR     61  45  55 VRB3      29.95R
JOHN DAY       CLEAR     61  33  35 CALM      30.03R
MEACHAM        CLEAR     48  36  63 CALM      30.02R
LA GRANDE      CLEAR     63  34  34 NW14      29.96R
BAKER CITY     NOT AVBL
BURNS          CLEAR     53  26  35 W8        30.03R
ROME             N/A     61  15  16 W7        29.98R
ONTARIO        CLEAR     70  33  25 NW13      29.90R
$$



USA.gov is the U.S. government's official web portal to all federal, state and local government web resources and services.